Home   Weather   Eupen   Past weeks

Flag for Belgium Past Weather in Eupen, Belgium — Yesterday and Last 2 Weeks

Now
28 °F

Chilly.


Feels Like: 28 °F
Forecast: 26 / 42 °F
Wind: 1 mph from North

Location: Elsenborn

Current Time: Dec 6, 2016 at 7:06:56 pm

Latest Report: Dec 6, 2016 at 6:25 pm


Visibility: N/A

Pressure: 30.42 "Hg

Humidity: 100%

Dew Point: 28 °F

Location of EupenLocation

Past Weather in Eupen — Graph

°F

Eupen Temperature Yesterday

Maximum temperature yesterday: 46 °F (at 1:55 pm)
Minimum temperature yesterday: 18 °F (at 7:55 am)
Average temperature yesterday: 28 °F

High & Low Weather Summary for the Past Weeks

 TemperatureHumidityPressure
High55 °F (Nov 23, 1:25 pm)100% (Nov 22, 8:55 pm)30.48 "Hg (Nov 22, 8:55 pm)
Low14 °F (Nov 30, 2:55 am)23% (Nov 30, 4:25 pm)29.50 "Hg (Nov 21, 5:25 pm)
Average34 °F84%30.18 "Hg
* Reported Nov 21 5:25 pm — Dec 6 5:55 pm, Eupen, Weather by CustomWeather, © 2016

Note: Actual official high and low records may vary slightly from our data, if they occured in-between our weather recording intervals... More about our weather records

Advertising

Eupen Weather History for the Previous 24 Hours

Scroll right to see more
 ConditionsComfort  
Time TempWeatherWind HumidityBarometerVisibility
5:55 pm
Tue, Dec 6
30 °FChilly.2 mph93%30.42 "HgN/A
5:25 pm32 °FChilly.1 mph93%30.42 "HgN/A
4:55 pm36 °FChilly.1 mph81%30.42 "HgN/A
4:25 pm37 °FChilly.1 mph81%30.42 "HgN/A
3:55 pm43 °FQuite cool.2 mph66%30.42 "HgN/A
3:25 pm46 °FCool.5 mph62%30.42 "HgN/A
1:55 pm48 °FCool.3 mph62%30.39 "HgN/A
1:25 pm46 °FCool.5 mph66%30.42 "HgN/A
12:55 pm46 °FCool.3 mph71%30.42 "HgN/A
12:25 pm45 °FQuite cool.1 mph76%30.39 "HgN/A
11:55 am41 °FQuite cool.1 mph81%30.39 "HgN/A
11:25 am37 °FChilly.1 mph87%30.42 "HgN/A
10:55 am32 °FChilly.1 mph93%30.39 "HgN/A
10:25 am28 °FChilly.1 mph93%30.39 "Hg5 mi
9:55 am25 °FIce fog.2 mph100%30.39 "Hg2 mi
9:25 am19 °FPassing clouds.2 mph93%30.39 "HgN/A
9:03 am19 °FScattered clouds.2 mph93%30.39 "Hg6 mi
8:55 am19 °FPassing clouds.2 mph93%30.39 "HgN/A
8:25 am18 °FCold.3 mph93%30.36 "HgN/A
7:55 am19 °FCold.No wind93%30.36 "HgN/A
7:25 am18 °FCold.1 mph93%30.36 "HgN/A
6:55 am19 °FPassing clouds.1 mph93%30.36 "HgN/A
6:25 am19 °FCold.1 mph93%30.36 "HgN/A
5:55 am19 °FCold.No wind93%30.33 "Hg6 mi
5:25 am19 °FCold.1 mph93%30.33 "Hg4 mi
4:55 am21 °FPassing clouds.No wind93%30.33 "Hg4 mi
4:25 am19 °FCold.1 mph100%30.33 "Hg6 mi
3:55 am21 °FPassing clouds.1 mph93%30.33 "Hg4 mi
3:25 am21 °FPassing clouds.1 mph93%30.33 "Hg5 mi
2:55 am21 °FPassing clouds.1 mph93%30.33 "Hg4 mi
2:25 am21 °FPassing clouds.1 mph93%30.33 "Hg4 mi
1:55 am23 °FOvercast.1 mph93%30.33 "Hg4 mi
1:25 am21 °FOvercast.1 mph100%30.33 "Hg4 mi
12:55 am23 °FPassing clouds.1 mph93%30.30 "Hg6 mi
12:25 am21 °FCold.No wind100%30.30 "Hg6 mi
11:55 pm
Mon, Dec 5
21 °FCold.1 mph93%30.30 "Hg4 mi
11:25 pm23 °FCold.1 mph93%30.33 "Hg4 mi
10:55 pm23 °FCold.1 mph93%30.33 "Hg4 mi
10:25 pm25 °FCold.1 mph93%30.30 "Hg3 mi
10:03 pm25 °FCold.1 mph93%30.30 "Hg3 mi
9:55 pm25 °FIce fog.1 mph93%30.30 "Hg3 mi
9:25 pm25 °FCold.1 mph100%30.30 "Hg6 mi
8:55 pm25 °FCold.1 mph93%30.30 "HgN/A
8:25 pm25 °FCold.2 mph93%30.30 "Hg4 mi
7:55 pm25 °FCold.1 mph100%30.30 "HgN/A
7:25 pm27 °FChilly.2 mph100%30.30 "HgN/A
7:03 pm27 °FChilly.1 mph93%30.30 "Hg4 mi
Weather by CustomWeather, © 2016

See weather overviewHow to use our weather pages